Time,TemperatureF,DewpointF,PressureIn,WindDirection,WindDirectionDegrees,WindSpeedMPH,WindSpeedGustMPH,Humidity,HourlyPrecipIn,Conditions,Clouds,dailyrainin,SoftwareType,DateUTC
2013-06-22 00:00:00,56.1,51.0,30.24,NE,45,0.0,0.0,83,0.00,,---,0.00,VWS V14.01,2013-06-22 04:00:00,
2013-06-22 00:15:00,55.7,51.3,30.24,NE,45,0.0,0.0,85,0.00,,---,0.00,VWS V14.01,2013-06-22 04:15:00,
2013-06-22 00:30:00,55.1,51.0,30.24,NE,45,0.0,0.0,86,0.00,,---,0.00,VWS V14.01,2013-06-22 04:30:00,
2013-06-22 00:45:00,54.7,50.9,30.25,NE,45,0.0,0.0,87,0.00,,---,0.00,VWS V14.01,2013-06-22 04:45:00,
2013-06-22 01:00:00,54.5,51.3,30.25,NE,45,0.0,0.0,89,0.00,,---,0.00,VWS V14.01,2013-06-22 05:00:00,
2013-06-22 01:15:00,54.2,51.3,30.25,NE,45,0.0,0.0,90,0.00,,---,0.00,VWS V14.01,2013-06-22 05:15:00,
2013-06-22 01:30:00,54.0,51.1,30.25,NE,45,0.0,0.0,90,0.00,,---,0.00,VWS V14.01,2013-06-22 05:30:00,
2013-06-22 01:45:00,53.9,51.3,30.25,NE,45,0.0,0.0,91,0.00,,---,0.00,VWS V14.01,2013-06-22 05:45:00,
2013-06-22 02:00:00,54.1,51.5,30.24,NE,45,0.0,0.0,91,0.00,,---,0.00,VWS V14.01,2013-06-22 06:00:00,
2013-06-22 02:15:00,54.4,51.8,30.23,NE,45,0.0,0.0,91,0.00,,---,0.00,VWS V14.01,2013-06-22 06:15:00,
2013-06-22 02:30:00,54.2,51.6,30.23,NE,45,0.0,0.0,91,0.00,,---,0.00,VWS V14.01,2013-06-22 06:30:00,
2013-06-22 02:45:00,54.2,51.6,30.23,NE,45,0.0,0.0,91,0.00,,---,0.00,VWS V14.01,2013-06-22 06:45:00,
2013-06-22 03:00:00,54.2,51.6,30.23,NE,45,0.0,0.0,91,0.00,,---,0.00,VWS V14.01,2013-06-22 07:00:00,
2013-06-22 03:15:00,54.0,51.7,30.23,NE,45,0.0,0.0,92,0.00,,---,0.00,VWS V14.01,2013-06-22 07:15:00,
2013-06-22 03:30:00,54.0,51.7,30.22,NE,45,0.0,0.0,92,0.00,,---,0.00,VWS V14.01,2013-06-22 07:30:00,
2013-06-22 03:45:00,53.9,51.6,30.22,NE,45,0.0,0.0,92,0.00,,---,0.00,VWS V14.01,2013-06-22 07:45:00,
2013-06-22 04:00:00,53.7,51.7,30.22,NE,45,0.0,0.0,93,0.00,,---,0.00,VWS V14.01,2013-06-22 08:00:00,
2013-06-22 04:15:00,53.6,51.6,30.22,NE,45,0.0,0.0,93,0.00,,---,0.00,VWS V14.01,2013-06-22 08:15:00,
2013-06-22 04:30:00,53.5,51.5,30.22,NE,45,0.0,0.0,93,0.00,,---,0.00,VWS V14.01,2013-06-22 08:30:00,
2013-06-22 04:45:00,53.6,51.9,30.23,NE,45,0.0,0.0,94,0.00,,---,0.00,VWS V14.01,2013-06-22 08:45:00,
2013-06-22 05:00:00,53.6,51.9,30.24,NE,45,0.0,0.0,94,0.00,,---,0.00,VWS V14.01,2013-06-22 09:00:00,
2013-06-22 05:15:00,53.7,52.0,30.24,NE,45,0.0,0.0,94,0.00,,---,0.00,VWS V14.01,2013-06-22 09:15:00,
2013-06-22 05:30:00,53.9,52.2,30.23,NE,45,0.0,0.0,94,0.00,,---,0.00,VWS V14.01,2013-06-22 09:30:00,
2013-06-22 05:45:00,54.2,52.8,30.22,NE,45,0.0,0.0,95,0.00,,---,0.00,VWS V14.01,2013-06-22 09:45:00,
2013-06-22 06:00:00,54.6,52.9,30.22,NE,45,0.0,0.0,94,0.00,,---,0.00,VWS V14.01,2013-06-22 10:00:00,
2013-06-22 06:15:00,54.9,53.2,30.22,NE,45,0.0,0.0,94,0.00,,---,0.00,VWS V14.01,2013-06-22 10:15:00,
2013-06-22 06:30:00,55.3,53.6,30.22,NE,45,0.0,0.0,94,0.00,,---,0.00,VWS V14.01,2013-06-22 10:30:00,
2013-06-22 06:45:00,55.6,53.6,30.23,NE,45,0.0,0.0,93,0.00,,---,0.00,VWS V14.01,2013-06-22 10:45:00,
2013-06-22 07:00:00,56.2,54.5,30.22,NE,45,0.0,0.0,94,0.00,,---,0.00,VWS V14.01,2013-06-22 11:00:00,
2013-06-22 07:15:00,57.2,54.9,30.20,NE,45,0.0,1.0,92,0.00,,---,0.00,VWS V14.01,2013-06-22 11:15:00,
2013-06-22 07:30:00,57.7,54.8,30.20,NE,45,0.0,0.0,90,0.00,,---,0.00,VWS V14.01,2013-06-22 11:30:00,
2013-06-22 07:45:00,58.1,54.9,30.21,NE,45,0.0,0.0,89,0.00,,---,0.00,VWS V14.01,2013-06-22 11:45:00,
2013-06-22 08:00:00,58.8,55.3,30.21,NE,45,0.0,0.0,88,0.00,,---,0.00,VWS V14.01,2013-06-22 12:00:00,
2013-06-22 08:15:00,59.8,56.2,30.21,NE,45,0.0,0.0,88,0.00,,---,0.00,VWS V14.01,2013-06-22 12:15:00,
2013-06-22 08:30:00,60.8,56.3,30.20,NE,45,0.0,0.0,85,0.00,,---,0.00,VWS V14.01,2013-06-22 12:30:00,
2013-06-22 08:45:00,62.4,57.2,30.20,North,0,0.0,1.0,83,0.00,,---,0.00,VWS V14.01,2013-06-22 12:45:00,
2013-06-22 09:00:00,63.3,57.7,30.20,NW,315,0.0,1.0,82,0.00,,---,0.00,VWS V14.01,2013-06-22 13:00:00,
2013-06-22 09:15:00,64.7,58.7,30.20,NW,315,0.0,1.0,81,0.00,,---,0.00,VWS V14.01,2013-06-22 13:15:00,
2013-06-22 09:30:00,66.1,58.0,30.20,NW,315,0.0,3.0,75,0.00,,---,0.00,VWS V14.01,2013-06-22 13:30:00,
2013-06-22 09:45:00,67.9,59.3,30.20,West,270,0.0,3.0,74,0.00,,---,0.00,VWS V14.01,2013-06-22 13:45:00,
2013-06-22 10:00:00,69.2,59.0,30.20,NE,45,0.0,4.0,70,0.00,,---,0.00,VWS V14.01,2013-06-22 14:00:00,
2013-06-22 10:15:00,70.0,59.0,30.20,NNW,338,0.0,3.0,68,0.00,,---,0.00,VWS V14.01,2013-06-22 14:15:00,
2013-06-22 10:30:00,70.3,59.7,30.21,NNE,22,1.0,3.0,69,0.00,,---,0.00,VWS V14.01,2013-06-22 14:30:00,
2013-06-22 10:45:00,71.3,60.2,30.20,NNW,338,0.0,2.0,68,0.00,,---,0.00,VWS V14.01,2013-06-22 14:45:00,
2013-06-22 11:00:00,72.3,60.7,30.20,West,270,1.0,3.0,67,0.00,,---,0.00,VWS V14.01,2013-06-22 15:00:00,
2013-06-22 11:15:00,72.8,60.8,30.20,West,270,1.0,3.0,66,0.00,,---,0.00,VWS V14.01,2013-06-22 15:15:00,
2013-06-22 11:30:00,73.8,62.6,30.20,NNW,338,0.0,1.0,68,0.00,,---,0.00,VWS V14.01,2013-06-22 15:30:00,
2013-06-22 11:45:00,74.3,62.6,30.19,WNW,292,0.0,2.0,67,0.00,,---,0.00,VWS V14.01,2013-06-22 15:45:00,
2013-06-22 12:00:00,74.8,63.1,30.19,NW,315,0.0,1.0,67,0.00,,---,0.00,VWS V14.01,2013-06-22 16:00:00,
2013-06-22 12:15:00,75.6,63.0,30.18,NW,315,0.0,1.0,65,0.00,,---,0.00,VWS V14.01,2013-06-22 16:15:00,
2013-06-22 12:30:00,75.9,64.2,30.18,SSW,202,0.0,4.0,67,0.00,,---,0.00,VWS V14.01,2013-06-22 16:30:00,
2013-06-22 12:45:00,77.7,63.7,30.17,South,180,0.0,4.0,62,0.00,,---,0.00,VWS V14.01,2013-06-22 16:45:00,
2013-06-22 13:00:00,77.5,64.4,30.16,WNW,292,1.0,4.0,64,0.00,,---,0.00,VWS V14.01,2013-06-22 17:00:00,
2013-06-22 13:15:00,75.9,65.0,30.16,WSW,248,0.0,1.0,69,0.00,,---,0.00,VWS V14.01,2013-06-22 17:15:00,
2013-06-22 13:30:00,73.6,67.1,30.16,WSW,248,0.0,1.0,80,0.00,,---,0.00,VWS V14.01,2013-06-22 17:30:00,
2013-06-22 13:45:00,73.4,67.9,30.16,WSW,248,0.0,0.0,83,0.00,,---,0.00,VWS V14.01,2013-06-22 17:45:00,
2013-06-22 14:00:00,72.7,66.5,30.16,WSW,248,0.0,0.0,81,0.00,,---,0.00,VWS V14.01,2013-06-22 18:00:00,
2013-06-22 14:15:00,69.5,65.8,30.16,South,180,1.0,6.0,88,0.03,,---,0.03,VWS V14.01,2013-06-22 18:15:00,
2013-06-22 14:30:00,68.8,65.8,30.16,NW,315,0.0,2.0,90,0.04,,---,0.04,VWS V14.01,2013-06-22 18:30:00,
2013-06-22 14:45:00,69.4,67.0,30.16,NW,315,0.0,0.0,92,0.04,,---,0.04,VWS V14.01,2013-06-22 18:45:00,
2013-06-22 15:00:00,69.9,67.2,30.15,NNW,338,0.0,1.0,91,0.04,,---,0.04,VWS V14.01,2013-06-22 19:00:00,
2013-06-22 15:15:00,70.1,66.7,30.15,NNW,338,0.0,1.0,89,0.04,,---,0.04,VWS V14.01,2013-06-22 19:15:00,
2013-06-22 15:30:00,70.1,67.0,30.14,NNW,338,0.0,0.0,90,0.01,,---,0.04,VWS V14.01,2013-06-22 19:30:00,
2013-06-22 15:45:00,69.7,66.6,30.14,NNW,338,0.0,0.0,90,0.00,,---,0.04,VWS V14.01,2013-06-22 19:45:00,
2013-06-22 16:00:00,69.4,67.0,30.14,NNW,338,0.0,0.0,92,0.00,,---,0.04,VWS V14.01,2013-06-22 20:00:00,
2013-06-22 16:15:00,69.0,65.6,30.14,ENE,68,0.0,1.0,89,0.00,,---,0.04,VWS V14.01,2013-06-22 20:15:00,
2013-06-22 16:30:00,68.7,66.0,30.14,NW,315,0.0,1.0,91,0.00,,---,0.04,VWS V14.01,2013-06-22 20:30:00,
2013-06-22 16:45:00,68.7,66.0,30.14,ENE,68,0.0,1.0,91,0.01,,---,0.05,VWS V14.01,2013-06-22 20:45:00,
2013-06-22 17:00:00,68.3,65.9,30.15,NE,45,0.0,3.0,92,0.01,,---,0.05,VWS V14.01,2013-06-22 21:00:00,
2013-06-22 17:15:00,67.9,65.5,30.15,NNE,22,1.0,4.0,92,0.02,,---,0.06,VWS V14.01,2013-06-22 21:15:00,
2013-06-22 17:30:00,67.4,65.0,30.16,NNE,22,0.0,0.0,92,0.02,,---,0.06,VWS V14.01,2013-06-22 21:30:00,
2013-06-22 17:45:00,67.2,65.4,30.17,NE,45,0.0,2.0,94,0.03,,---,0.07,VWS V14.01,2013-06-22 21:45:00,
2013-06-22 18:00:00,66.6,64.8,30.18,SSE,158,0.0,3.0,94,0.06,,---,0.11,VWS V14.01,2013-06-22 22:00:00,
2013-06-22 18:15:00,66.1,64.3,30.17,ENE,68,1.0,5.0,94,0.13,,---,0.18,VWS V14.01,2013-06-22 22:15:00,
2013-06-22 18:30:00,65.9,64.4,30.17,ENE,68,0.0,3.0,95,0.16,,---,0.22,VWS V14.01,2013-06-22 22:30:00,
2013-06-22 18:45:00,65.7,64.2,30.17,ENE,68,0.0,0.0,95,0.20,,---,0.26,VWS V14.01,2013-06-22 22:45:00,
2013-06-22 19:00:00,65.4,63.9,30.17,SSE,158,0.0,1.0,95,0.23,,---,0.30,VWS V14.01,2013-06-22 23:00:00,
2013-06-22 19:15:00,65.3,64.1,30.17,SSE,158,0.0,0.0,96,0.21,,---,0.32,VWS V14.01,2013-06-22 23:15:00,
2013-06-22 19:30:00,65.2,64.0,30.16,SSE,158,0.0,1.0,96,0.15,,---,0.33,VWS V14.01,2013-06-22 23:30:00,
2013-06-22 19:45:00,65.0,63.8,30.16,West,270,0.0,1.0,96,0.11,,---,0.33,VWS V14.01,2013-06-22 23:45:00,
2013-06-22 20:00:00,64.8,63.3,30.16,WSW,248,0.0,2.0,95,0.08,,---,0.34,VWS V14.01,2013-06-23 00:00:00,
2013-06-22 20:15:00,64.5,63.0,30.15,WSW,248,0.0,1.0,95,0.04,,---,0.34,VWS V14.01,2013-06-23 00:15:00,
2013-06-22 20:30:00,64.2,62.7,30.14,WSW,248,0.0,0.0,95,0.02,,---,0.34,VWS V14.01,2013-06-23 00:30:00,
2013-06-22 20:45:00,64.2,62.7,30.14,South,180,0.0,1.0,95,0.02,,---,0.35,VWS V14.01,2013-06-23 00:45:00,
2013-06-22 21:00:00,64.3,62.8,30.15,NE,45,0.0,2.0,95,0.02,,---,0.35,VWS V14.01,2013-06-23 01:00:00,
2013-06-22 21:15:00,64.0,62.5,30.15,NE,45,0.0,0.0,95,0.01,,---,0.35,VWS V14.01,2013-06-23 01:15:00,
2013-06-22 21:30:00,64.0,62.8,30.15,NW,315,0.0,1.0,96,0.01,,---,0.35,VWS V14.01,2013-06-23 01:30:00,
2013-06-22 21:45:00,63.8,62.6,30.15,NW,315,0.0,0.0,96,0.01,,---,0.35,VWS V14.01,2013-06-23 01:45:00,
2013-06-22 22:00:00,63.7,62.5,30.15,NW,315,0.0,0.0,96,0.00,,---,0.35,VWS V14.01,2013-06-23 02:00:00,
2013-06-22 22:15:00,63.4,62.2,30.14,NW,315,0.0,0.0,96,0.00,,---,0.35,VWS V14.01,2013-06-23 02:15:00,
2013-06-22 22:30:00,63.2,62.0,30.15,NW,315,0.0,0.0,96,0.00,,---,0.35,VWS V14.01,2013-06-23 02:30:00,
2013-06-22 22:45:00,62.9,61.8,30.15,NW,315,0.0,0.0,96,0.00,,---,0.35,VWS V14.01,2013-06-23 02:45:00,
2013-06-22 23:00:00,63.0,62.1,30.17,NW,315,0.0,0.0,97,0.00,,---,0.35,VWS V14.01,2013-06-23 03:00:00,
2013-06-22 23:15:00,63.1,62.2,30.16,SE,135,0.0,2.0,97,0.01,,---,0.36,VWS V14.01,2013-06-23 03:15:00,
2013-06-22 23:30:00,63.1,62.2,30.16,SE,135,0.0,0.0,97,0.01,,---,0.36,VWS V14.01,2013-06-23 03:30:00,
2013-06-22 23:45:00,63.1,62.2,30.15,SE,135,0.0,0.0,97,0.01,,---,0.36,VWS V14.01,2013-06-23 03:45:00,